Time,TemperatureF,DewpointF,PressureIn,WindDirection,WindDirectionDegrees,WindSpeedMPH,WindSpeedGustMPH,Humidity,HourlyPrecipIn,Conditions,Clouds,dailyrainin,SoftwareType,DateUTC
2013-06-28 00:05:00,68.8,68.0,29.72,ENE,63,0.0,2.0,96,0.00,,,0.00,weatherlink.com 1.10,2013-06-28 04:05:00,
2013-06-28 00:20:00,68.6,68.0,29.71,ESE,103,2.0,5.0,96,0.00,,,0.00,weatherlink.com 1.10,2013-06-28 04:20:00,
2013-06-28 00:35:00,68.5,67.0,29.70,ESE,123,2.0,7.0,96,0.00,,,0.00,weatherlink.com 1.10,2013-06-28 04:35:00,
2013-06-28 00:50:00,68.4,67.0,29.70,SE,134,1.0,6.0,96,0.00,,,0.00,weatherlink.com 1.10,2013-06-28 04:50:00,
2013-06-28 01:05:00,68.3,67.0,29.71,SSW,209,0.0,4.0,96,0.04,,,0.04,weatherlink.com 1.10,2013-06-28 05:05:00,
2013-06-28 01:35:00,68.8,68.0,29.70,WNW,288,0.0,7.0,97,0.09,,,0.09,weatherlink.com 1.10,2013-06-28 05:35:00,
2013-06-28 01:50:00,68.8,68.0,29.67,ESE,108,0.0,4.0,97,0.21,,,0.21,weatherlink.com 1.10,2013-06-28 05:50:00,
2013-06-28 02:05:00,69.1,68.0,29.65,WSW,248,1.0,6.0,97,0.17,,,0.21,weatherlink.com 1.10,2013-06-28 06:05:00,
2013-06-28 02:20:00,69.3,69.0,29.64,SSE,153,1.0,3.0,97,0.17,,,0.22,weatherlink.com 1.10,2013-06-28 06:20:00,
2013-06-28 02:35:00,69.9,69.0,29.64,SSW,208,0.0,7.0,98,0.26,,,0.36,weatherlink.com 1.10,2013-06-28 06:35:00,
2013-06-28 02:50:00,70.1,69.0,29.62,SE,125,0.0,8.0,97,0.15,,,0.36,weatherlink.com 1.10,2013-06-28 06:50:00,
2013-06-28 03:05:00,70.3,69.0,29.62,WSW,243,3.0,6.0,97,0.15,,,0.36,weatherlink.com 1.10,2013-06-28 07:05:00,
2013-06-28 03:20:00,70.3,69.0,29.62,West,271,0.0,5.0,97,0.14,,,0.36,weatherlink.com 1.10,2013-06-28 07:20:00,
2013-06-28 03:35:00,70.1,69.0,29.62,WSW,256,1.0,16.0,97,0.00,,,0.36,weatherlink.com 1.10,2013-06-28 07:35:00,
2013-06-28 03:50:00,70.1,69.0,29.62,SSW,193,1.0,6.0,97,0.00,,,0.36,weatherlink.com 1.10,2013-06-28 07:50:00,
2013-06-28 04:05:00,70.0,69.0,29.61,SW,221,0.0,9.0,97,0.00,,,0.36,weatherlink.com 1.10,2013-06-28 08:05:00,
2013-06-28 04:20:00,70.0,69.0,29.61,WSW,240,0.0,9.0,97,0.00,,,0.36,weatherlink.com 1.10,2013-06-28 08:20:00,
2013-06-28 04:35:00,70.0,69.0,29.61,South,179,2.0,6.0,98,0.00,,,0.36,weatherlink.com 1.10,2013-06-28 08:35:00,
2013-06-28 04:50:00,70.0,69.0,29.60,SW,215,0.0,5.0,98,0.00,,,0.36,weatherlink.com 1.10,2013-06-28 08:50:00,
2013-06-28 05:05:00,70.2,70.0,29.61,South,181,5.0,7.0,98,0.00,,,0.36,weatherlink.com 1.10,2013-06-28 09:05:00,
2013-06-28 05:20:00,70.2,70.0,29.61,SW,224,1.0,7.0,98,0.00,,,0.36,weatherlink.com 1.10,2013-06-28 09:20:00,
2013-06-28 05:35:00,70.1,70.0,29.61,SW,233,6.0,8.0,98,0.00,,,0.36,weatherlink.com 1.10,2013-06-28 09:35:00,
2013-06-28 05:50:00,70.1,70.0,29.61,SSW,194,5.0,8.0,98,0.00,,,0.36,weatherlink.com 1.10,2013-06-28 09:50:00,
2013-06-28 06:05:00,70.1,70.0,29.60,SSW,213,1.0,6.0,98,0.00,,,0.36,weatherlink.com 1.10,2013-06-28 10:05:00,
2013-06-28 06:20:00,69.7,69.0,29.59,SSW,192,0.0,10.0,97,0.00,,,0.36,weatherlink.com 1.10,2013-06-28 10:20:00,
2013-06-28 06:35:00,69.4,69.0,29.59,SW,219,0.0,10.0,98,0.00,,,0.36,weatherlink.com 1.10,2013-06-28 10:35:00,
2013-06-28 06:50:00,69.4,69.0,29.59,SSW,203,3.0,10.0,98,0.00,,,0.36,weatherlink.com 1.10,2013-06-28 10:50:00,
2013-06-28 07:05:00,69.7,69.0,29.59,SSE,165,4.0,10.0,98,0.00,,,0.36,weatherlink.com 1.10,2013-06-28 11:05:00,
2013-06-28 07:20:00,69.9,69.0,29.59,WSW,252,2.0,10.0,98,0.00,,,0.36,weatherlink.com 1.10,2013-06-28 11:20:00,
2013-06-28 07:35:00,69.7,69.0,29.58,WSW,238,1.0,12.0,98,0.00,,,0.36,weatherlink.com 1.10,2013-06-28 11:35:00,
2013-06-28 07:50:00,70.1,70.0,29.58,SSE,167,3.0,12.0,98,0.00,,,0.36,weatherlink.com 1.10,2013-06-28 11:50:00,
2013-06-28 08:05:00,69.7,69.0,29.59,SSW,213,4.0,12.0,98,0.05,,,0.41,weatherlink.com 1.10,2013-06-28 12:05:00,
2013-06-28 08:20:00,69.5,69.0,29.58,SW,222,4.0,8.0,98,0.07,,,0.43,weatherlink.com 1.10,2013-06-28 12:20:00,
2013-06-28 08:35:00,69.1,69.0,29.58,SSW,212,9.0,12.0,98,0.07,,,0.43,weatherlink.com 1.10,2013-06-28 12:35:00,
2013-06-28 08:50:00,68.9,68.0,29.58,WSW,246,3.0,9.0,98,0.07,,,0.43,weatherlink.com 1.10,2013-06-28 12:50:00,
2013-06-28 09:05:00,68.5,68.0,29.58,South,185,2.0,13.0,98,0.02,,,0.43,weatherlink.com 1.10,2013-06-28 13:05:00,
2013-06-28 09:20:00,68.6,68.0,29.57,SW,223,0.0,13.0,98,0.00,,,0.43,weatherlink.com 1.10,2013-06-28 13:20:00,
2013-06-28 09:35:00,68.8,68.0,29.57,SW,219,0.0,9.0,98,0.00,,,0.43,weatherlink.com 1.10,2013-06-28 13:35:00,
2013-06-28 09:50:00,69.2,69.0,29.56,SSE,151,2.0,7.0,98,0.00,,,0.43,weatherlink.com 1.10,2013-06-28 13:50:00,
2013-06-28 10:06:00,69.5,69.0,29.56,SSW,200,0.0,10.0,98,0.00,,,0.43,weatherlink.com 1.10,2013-06-28 14:06:00,
2013-06-28 10:21:00,69.2,69.0,29.56,SSE,159,4.0,10.0,98,0.01,,,0.44,weatherlink.com 1.10,2013-06-28 14:21:00,
2013-06-28 10:36:00,69.1,69.0,29.56,SSE,156,0.0,8.0,98,0.01,,,0.44,weatherlink.com 1.10,2013-06-28 14:36:00,
2013-06-28 10:51:00,69.4,69.0,29.56,SE,144,4.0,8.0,98,0.03,,,0.46,weatherlink.com 1.10,2013-06-28 14:51:00,
2013-06-28 11:06:00,69.0,69.0,29.56,SW,222,0.0,8.0,98,0.03,,,0.46,weatherlink.com 1.10,2013-06-28 15:06:00,
2013-06-28 11:21:00,69.1,69.0,29.56,SSW,213,2.0,13.0,98,0.02,,,0.46,weatherlink.com 1.10,2013-06-28 15:21:00,
2013-06-28 11:36:00,69.3,69.0,29.56,SW,215,0.0,11.0,98,0.01,,,0.46,weatherlink.com 1.10,2013-06-28 15:36:00,
2013-06-28 11:51:00,69.5,69.0,29.56,SSE,167,2.0,11.0,98,0.00,,,0.46,weatherlink.com 1.10,2013-06-28 15:51:00,
2013-06-28 12:06:00,69.4,69.0,29.55,SW,226,2.0,9.0,98,0.00,,,0.46,weatherlink.com 1.10,2013-06-28 16:06:00,
2013-06-28 12:21:00,69.4,69.0,29.55,SSW,204,0.0,12.0,98,0.00,,,0.46,weatherlink.com 1.10,2013-06-28 16:21:00,
2013-06-28 12:36:00,69.7,69.0,29.55,SSW,205,3.0,9.0,98,0.00,,,0.46,weatherlink.com 1.10,2013-06-28 16:36:00,
2013-06-28 12:51:00,69.8,69.0,29.55,ENE,75,0.0,6.0,98,0.00,,,0.46,weatherlink.com 1.10,2013-06-28 16:51:00,
2013-06-28 13:06:00,69.6,69.0,29.55,SW,229,1.0,16.0,98,0.00,,,0.46,weatherlink.com 1.10,2013-06-28 17:06:00,
2013-06-28 13:21:00,69.6,69.0,29.55,SSW,210,2.0,10.0,98,0.00,,,0.46,weatherlink.com 1.10,2013-06-28 17:21:00,
2013-06-28 13:36:00,70.1,70.0,29.55,SSW,213,0.0,7.0,98,0.00,,,0.46,weatherlink.com 1.10,2013-06-28 17:36:00,
2013-06-28 13:51:00,70.8,70.0,29.55,NNW,331,1.0,10.0,98,0.00,,,0.46,weatherlink.com 1.10,2013-06-28 17:51:00,
2013-06-28 14:06:00,71.0,70.0,29.55,SSE,166,1.0,12.0,98,0.00,,,0.46,weatherlink.com 1.10,2013-06-28 18:06:00,
2013-06-28 14:21:00,70.8,70.0,29.55,WSW,242,2.0,12.0,98,0.00,,,0.46,weatherlink.com 1.10,2013-06-28 18:21:00,
2013-06-28 14:36:00,70.9,70.0,29.54,West,264,1.0,7.0,98,0.00,,,0.46,weatherlink.com 1.10,2013-06-28 18:36:00,
2013-06-28 14:51:00,70.9,70.0,29.54,SE,128,1.0,9.0,98,0.00,,,0.46,weatherlink.com 1.10,2013-06-28 18:51:00,
2013-06-28 15:06:00,71.0,70.0,29.54,SW,229,4.0,9.0,98,0.00,,,0.46,weatherlink.com 1.10,2013-06-28 19:06:00,
2013-06-28 15:21:00,71.2,71.0,29.54,SSW,209,6.0,10.0,98,0.00,,,0.46,weatherlink.com 1.10,2013-06-28 19:21:00,
2013-06-28 15:36:00,70.8,70.0,29.54,South,171,3.0,11.0,97,0.00,,,0.46,weatherlink.com 1.10,2013-06-28 19:36:00,
2013-06-28 15:51:00,70.7,70.0,29.54,SSW,206,0.0,12.0,97,0.00,,,0.46,weatherlink.com 1.10,2013-06-28 19:51:00,
2013-06-28 16:06:00,70.8,70.0,29.54,SSW,205,2.0,9.0,97,0.00,,,0.46,weatherlink.com 1.10,2013-06-28 20:06:00,
2013-06-28 16:21:00,70.7,70.0,29.54,South,189,1.0,8.0,97,0.00,,,0.46,weatherlink.com 1.10,2013-06-28 20:21:00,
2013-06-28 16:36:00,70.5,70.0,29.55,WSW,246,0.0,8.0,97,0.00,,,0.46,weatherlink.com 1.10,2013-06-28 20:36:00,
2013-06-28 16:51:00,70.4,70.0,29.54,West,264,1.0,9.0,97,0.00,,,0.46,weatherlink.com 1.10,2013-06-28 20:51:00,
2013-06-28 17:06:00,70.2,69.0,29.54,SSW,193,3.0,6.0,97,0.00,,,0.46,weatherlink.com 1.10,2013-06-28 21:06:00,
2013-06-28 17:21:00,70.1,69.0,29.54,WNW,289,0.0,10.0,97,0.00,,,0.46,weatherlink.com 1.10,2013-06-28 21:21:00,
2013-06-28 17:36:00,70.3,69.0,29.54,SSE,167,1.0,9.0,97,0.00,,,0.46,weatherlink.com 1.10,2013-06-28 21:36:00,
2013-06-28 17:51:00,70.5,70.0,29.54,SSE,157,3.0,11.0,97,0.00,,,0.46,weatherlink.com 1.10,2013-06-28 21:51:00,
2013-06-28 18:06:00,70.4,70.0,29.54,SW,220,1.0,6.0,97,0.00,,,0.46,weatherlink.com 1.10,2013-06-28 22:06:00,
2013-06-28 18:21:00,70.3,69.0,29.54,SE,127,0.0,7.0,97,0.00,,,0.46,weatherlink.com 1.10,2013-06-28 22:21:00,
2013-06-28 18:36:00,70.0,69.0,29.53,SW,231,0.0,9.0,97,0.00,,,0.46,weatherlink.com 1.10,2013-06-28 22:36:00,
2013-06-28 18:51:00,69.8,69.0,29.53,South,182,0.0,5.0,98,0.00,,,0.46,weatherlink.com 1.10,2013-06-28 22:51:00,
2013-06-28 19:06:00,69.7,69.0,29.54,SW,220,4.0,7.0,97,0.00,,,0.46,weatherlink.com 1.10,2013-06-28 23:06:00,
2013-06-28 19:21:00,69.4,69.0,29.55,SW,227,2.0,7.0,97,0.00,,,0.46,weatherlink.com 1.10,2013-06-28 23:21:00,
2013-06-28 19:36:00,69.2,69.0,29.55,SW,220,3.0,7.0,98,0.00,,,0.46,weatherlink.com 1.10,2013-06-28 23:36:00,
2013-06-28 19:51:00,68.9,68.0,29.55,SW,216,1.0,8.0,98,0.00,,,0.46,weatherlink.com 1.10,2013-06-28 23:51:00,
2013-06-28 20:06:00,68.5,68.0,29.55,SW,222,2.0,9.0,98,0.00,,,0.46,weatherlink.com 1.10,2013-06-29 00:06:00,
2013-06-28 20:21:00,68.3,68.0,29.55,West,264,0.0,6.0,98,0.00,,,0.46,weatherlink.com 1.10,2013-06-29 00:21:00,
2013-06-28 20:36:00,68.2,68.0,29.54,SSW,197,0.0,9.0,98,0.00,,,0.46,weatherlink.com 1.10,2013-06-29 00:36:00,
2013-06-28 20:51:00,68.3,68.0,29.55,NE,51,0.0,10.0,98,0.00,,,0.46,weatherlink.com 1.10,2013-06-29 00:51:00,
2013-06-28 21:06:00,68.5,68.0,29.57,SE,138,3.0,9.0,98,0.00,,,0.46,weatherlink.com 1.10,2013-06-29 01:06:00,
2013-06-28 21:21:00,68.6,68.0,29.57,WSW,242,1.0,8.0,98,0.00,,,0.46,weatherlink.com 1.10,2013-06-29 01:21:00,
2013-06-28 21:36:00,68.8,68.0,29.57,SW,221,5.0,8.0,98,0.00,,,0.46,weatherlink.com 1.10,2013-06-29 01:36:00,
2013-06-28 21:51:00,68.9,68.0,29.57,SW,232,4.0,8.0,98,0.00,,,0.46,weatherlink.com 1.10,2013-06-29 01:51:00,
2013-06-28 22:06:00,68.9,68.0,29.57,SW,215,0.0,9.0,98,0.00,,,0.46,weatherlink.com 1.10,2013-06-29 02:06:00,
2013-06-28 22:21:00,69.0,69.0,29.57,SW,218,0.0,4.0,98,0.00,,,0.46,weatherlink.com 1.10,2013-06-29 02:21:00,
2013-06-28 22:36:00,68.9,68.0,29.57,South,183,1.0,8.0,98,0.00,,,0.46,weatherlink.com 1.10,2013-06-29 02:36:00,
2013-06-28 22:51:00,69.0,69.0,29.57,WSW,250,3.0,4.0,98,0.00,,,0.46,weatherlink.com 1.10,2013-06-29 02:51:00,
2013-06-28 23:06:00,69.1,69.0,29.57,SW,232,0.0,5.0,98,0.01,,,0.47,weatherlink.com 1.10,2013-06-29 03:06:00,
2013-06-28 23:21:00,69.2,69.0,29.57,South,191,0.0,6.0,98,0.01,,,0.47,weatherlink.com 1.10,2013-06-29 03:21:00,
2013-06-28 23:36:00,69.2,69.0,29.57,SE,129,0.0,9.0,98,0.01,,,0.47,weatherlink.com 1.10,2013-06-29 03:36:00,
2013-06-28 23:51:00,68.9,68.0,29.57,WSW,239,0.0,6.0,98,0.01,,,0.47,weatherlink.com 1.10,2013-06-29 03:51:00,